Location: Unspecified
(0.0000°N, 0.0000°E)
Time: 23:36:41
(UTC+01:00)

ARIANE 5 R/B - Visible Passes

Search period start: 03 March 2015 00:00
Search period end: 13 March 2015 00:00
Orbit: 635 x 38467 km, 6.7° (Epoch: 28 February)

Date Brightness Start Highest point End Pass type
(mag) Time Alt. Az. Time Alt. Az. Time Alt. Az.
03 Mar 4.9 08:44:44 10° W 19:33:20 87° S 19:38:51 10° E visible
05 Mar 6.1 06:43:16 10° W 08:09:42 88° N 17:44:16 10° E visible
06 Mar 6.6 05:47:20 23° W 06:16:36 88° S 16:46:37 10° E visible
07 Mar 6.4 04:52:39 45° WSW 05:05:10 84° S 15:48:34 10° E visible
08 Mar 6.2 03:57:57 72° SW 04:00:55 79° S 14:49:54 10° E visible
09 Mar 6.4 03:03:15 65° ESE 03:03:15 65° ESE 13:50:17 10° E visible
10 Mar 7.0 02:08:33 39° ESE 02:08:33 39° ESE 12:49:10 10° E visible
11 Mar 7.6 01:13:51 19° E 01:13:51 19° E 01:23:44 10° E visible
11 Mar 7.6 01:13:52 19° E 01:13:52 19° E 01:23:43 10° E visible
